[ hide orbit diagram ]
For accurate long-term ephemerides, please instead use our Horizons system.This orbit viewer was implemented using two-body methods, and hence should not be used for determining accurate long-term trajectories (over several years or decades) or planetary encounter circumstances.
[ revert to old Java-based viewer ]
Orbital Elements at Epoch 2458600.5 (2019-Apr-27.0) TDB
Reference: JPL 9 (heliocentric ecliptic J2000)
Element | Value | Uncertainty (1-sigma) | Units |
e | .1517496666724581 | 1.1928e-07 | |
a | 2.747084360510743 | 7.3025e-08 | au |
q | 2.330215224482115 | 3.2716e-07 | au |
i | 8.931296785057434 | 1.1846e-05 | deg |
node | 318.0206097947514 | 5.6654e-05 | deg |
peri | 145.6068212545744 | 6.6692e-05 | deg |
M | 142.6235833920828 | 3.8906e-05 | deg |
tp | 2457941.636779794519 (2017-Jul-07.13677979) | 0.00016351 | TDB |
period | 1663.054269376461 4.55 | 6.6313e-05 1.816e-07 | d yr |
n | .2164691836153831 | 8.6316e-09 | deg/d |
Q | 3.16395349653937 | 8.4107e-08 | au |
|
| | Orbit Determination Parameters
Additional Information
|
[ show covariance matrix ]
Physical Parameter Table
Parameter |
Symbol |
Value |
Units |
Sigma |
Reference |
Notes |
absolute magnitude |
H |
16.9 |
|
n/a |
MPO437722 |
|
|
442773 (2012 XO105) Discovered 2007-Nov-04 by Mt. Lemmon Survey at Mount Lemmon |
Reference: | Last Updated: 2015-09-02 |
|
[ show close-approach data ]
|